This demonstration page uses our WeatherBlox Daily Observations layout. Learn more.

39.29038, -76.61219

Hourly Observations for October 15, 2018

Temp ( °F °C ) Dew Point ( °F °C ) Humidity (%) Winds ( mph kmh ) Pressure ( in mb ) Visibility ( mi km ) Precip ( " mm )
12:54 am 00:54 undefined 58 14.4 54 12.2 87 87 undefined N/A 30.19 1022 N/A 0 0
1:54 am 01:54 undefined 57 13.9 55 12.8 93 93 undefined N/A 30.18 1022 N/A 0 0
2:54 am 02:54 undefined 58 14.4 56 13.3 93 93 undefined N/A 30.16 1021 N/A 0 0
3:54 am 03:54 undefined 59 15 56 13.3 90 90 undefined N/A 30.14 1021 N/A 0 0
4:54 am 04:54 undefined 59 15 56 13.3 90 90 undefined N/A 30.13 1020 N/A 0 0
5:54 am 05:54 undefined 59 15 55 12.8 87 87 undefined N/A 30.13 1020 N/A 0 0
6:54 am 06:54 undefined 58 14.4 57 13.9 97 97 undefined N/A 30.12 1020 N/A 0 0
7:54 am 07:54 undefined 59 15 58 14.4 96 96 undefined N/A 30.11 1020 N/A 0.02 0.508
8:54 am 08:54 undefined 60 15.6 59 15 96 96 undefined N/A 30.11 1020 N/A 0.02 0.508
9:54 am 09:54 undefined 61 16.1 60 15.6 97 97 undefined N/A 30.1 1019 N/A 0.02 0.508
10:54 am 10:54 undefined 63 17.2 61 16.1 93 93 undefined N/A 30.1 1019 N/A 0 0
11:54 am 11:54 undefined 64 17.8 61 16.1 90 90 undefined N/A 30.08 1019 N/A 0 0
12:54 pm 12:54 undefined 66 18.9 62 16.7 87 87 undefined N/A 30.06 1018 N/A 0 0
1:54 pm 13:54 undefined 67 19.4 64 17.8 91 91 undefined N/A 30.02 1017 N/A 0.01 0.254
2:54 pm 14:54 undefined 67 19.4 65 18.3 93 93 undefined N/A 29.99 1016 N/A 0.02 0.508
3:54 pm 15:54 undefined 67 19.4 64 17.8 91 91 undefined N/A 30 1016 N/A 0 0
4:54 pm 16:54 undefined 68 20 65 18.3 90 90 undefined N/A 29.98 1015 N/A 0 0
5:54 pm 17:54 undefined 68 20 65 18.3 90 90 undefined N/A 29.94 1014 N/A 0.01 0.254
6:54 pm 18:54 undefined 68 20 65 18.3 90 90 undefined N/A 29.96 1014 N/A 0 0
7:54 pm 19:54 undefined 67 19.4 65 18.3 93 93 undefined N/A 29.96 1014 N/A 0 0
8:54 pm 20:54 undefined 69 20.6 66 18.9 90 90 undefined N/A 29.96 1014 N/A 0 0
9:54 pm 21:54 undefined 71 21.7 66 18.9 84 84 undefined N/A 29.96 1015 N/A 0 0
10:54 pm 22:54 undefined 71 21.7 66 18.9 84 84 undefined N/A 29.96 1015 N/A 0 0
11:54 pm 23:54 undefined 68 20 59 15 73 73 undefined N/A 29.99 1016 N/A 0 0

Powered by AerisWeather